{"data":{"norad_id":51152,"epoch":"2026-09-19T22:51:52.633728Z","epoch_age_seconds":97166,"freshness":"FRESH","line1":"1 51152U 22005BA  26262.95269252  .00000526  00000+0  27326-4 0  9997","line2":"2 51152  53.1593 142.3510 0001242  89.0124 271.1020 15.33548238258124","mean_motion":15.33548238,"eccentricity":0.0001242,"inclination_deg":53.1593,"raan_deg":142.351,"arg_perigee_deg":89.0124,"mean_anomaly_deg":271.102,"bstar":2.7326e-5,"rev_number":25812,"period_min":93.899882919757,"perigee_km":464.38608112609,"apogee_km":466.08597498626,"semimajor_km":6843.3730280562,"source":"CELESTRAK","updated_at":"2026-09-20T09:00:39.593640Z"}}